Regional Weather Roundup
Issued by NWS

Home | Current Version | Previous Version | Graphics & Text | Print | Product List | Glossary Off
Versions: 1 2 3 4 5 6 7 8 9 10 11 12 13 14 15 16 17 18 19 20 21 22 23 24 25 26 27 28 29 30 31 32 33 34 35 36 37 38 39 40 41 42 43 44 45 46 47 48 49 50

000
ASUS43 KDMX 262106
RWRIA

WEATHER ROUNDUP FOR IOWA
NATIONAL WEATHER SERVICE DES MOINES IA
400 PM CDT FRI MAY 26 2017

NOTE: "FAIR" INDICATES FEW OR NO CLOUDS BELOW 12,000 FEET WITH NO
SIGNIFICANT WEATHER AND/OR OBSTRUCTIONS TO VISIBILITY.

* - THESE STATIONS ARE NOT NWS STATIONS...THUS NOT UNDER NWS
QUALITY CONTROL.  THEY ALSO DO NOT REPORT WEATHER SUCH
AS PRECIPITATION OR FOG.

IAZ001>003-012>014-020>022-031>034-043>046-262200-
   NORTHWEST IOWA

CITY           SKY/WX    TMP DP  RH WIND       PRES   REMARKS
CARROLL *      MOSUNNY   81  54  39 NW10G17   29.78R HX  80
CHEROKEE *     PTSUNNY   77  49  37 NW9       29.79S
DENISON *      MOSUNNY   77  48  36 NW9G18    29.81S
LE MARS *      MOSUNNY   77  48  36 W13       29.82S
ORANGE CITY *  CLOUDY    75  48  38 NW15G21   29.81F
SHELDON *      SUNNY     77  41  27 NW17      29.79S
SIOUX CITY     MOSUNNY   78  52  40 NW13      29.80F
SPENCER        SUNNY     80  46  30 W15G21    29.78S
STORM LAKE *     N/A     79  46  31 NW15G22   29.80R
$$

IAZ055>058-069>071-079>083-090>094-262200-
   SOUTHWEST IOWA

CITY           SKY/WX    TMP DP  RH WIND       PRES   REMARKS
ATLANTIC *     MOSUNNY   81  59  47 N10       29.77S HX  81
AUDUBON *      MOSUNNY   81  55  41 NW9       29.79S HX  80
CLARINDA *     MOSUNNY   82  59  44 N12       29.79R HX  82
COUNCIL BLFS * SUNNY     79  54  41 NW8G15    29.80S
CRESTON *      PTSUNNY   81  59  47 NW9       29.79R HX  81
HARLAN  *      MOSUNNY   79  50  36 NW16      29.82S
LAMONI         MOSUNNY   80  61  52 VRB3      29.77R HX  81
RED OAK *      MOSUNNY   82  57  42 N10G17    29.78R HX  82
SHENANDOAH *   SUNNY     82  57  42 N9G16     29.78S HX  82
$$

IAZ047>049-059>061-072>074-084-262200-
   CENTRAL IOWA

CITY           SKY/WX    TMP DP  RH WIND       PRES   REMARKS
AMES           MOSUNNY   79  59  50 CALM      29.76S HX  80
ANKENY *       MOSUNNY   79  59  50 NW5G16    29.77S HX  80
BOONE *        PTSUNNY   77  61  57 VRB5      29.76S
CHARITON *     SUNNY     77  63  61 NW6       29.77R
DES MOINES     MOSUNNY   81  58  45 N7        29.75S HX  81
GRINNELL*      SUNNY     71  62  73 NE7       29.79S
KNOXVILLE *    SUNNY     75  59  57 N8        29.75S
MARSHALLTOWN   SUNNY     75  59  57 CALM      29.77R
NEWTON *       SUNNY     77  57  50 W7        29.76S
PERRY *        PTSUNNY   81  54  38 N7        29.76S HX  80
$$

IAZ004>006-015-016-023>025-035-036-262200-
   NORTH CENTRAL IOWA

CITY           SKY/WX    TMP DP  RH WIND       PRES   REMARKS
ALGONA *       MOSUNNY   79  50  36 W10       29.77S
CLARION *      SUNNY     79  57  47 W8G15     29.77S HX  80
ESTHERVILLE    SUNNY     77  49  37 W18       29.77S
FORT DODGE *   MOSUNNY   79  59  50 W6        29.78S HX  80
MASON CITY     MOSUNNY   76  55  48 CALM      29.79S
FOREST CITY *    N/A     81  46  30 SW5       29.77F HX  80
WEBSTER CITY * MOSUNNY   79  55  44 W7        29.75S
$$

IAZ007>011-017>019-026>030-037>042-050>054-066-262200-
   NORTHEAST IOWA

CITY           SKY/WX    TMP DP  RH WIND       PRES   REMARKS
CEDAR RAPIDS   CLOUDY    65  62  90 E7        29.78S
CHARLES CITY * SUNNY     72  59  64 E8        29.79S
CLINTON *      CLOUDY    64  62  93 NE13      29.78S
DUBUQUE        CLOUDY    64  60  87 NE9       29.80F
MONTICELLO *   CLOUDY    68  59  73 VRB7G14   29.78F
OELWEIN *      MOSUNNY   68  59  73 SE12      29.80F
WATERLOO       MOSUNNY   71  59  65 VRB7      29.78S
$$

IAZ064-065-067-068-078-262200-
   EAST CENTRAL IOWA

CITY           SKY/WX    TMP DP  RH WIND       PRES   REMARKS
DAVENPORT      CLOUDY    67  61  81 NE9       29.77S
IOWA CITY      CLOUDY    68  60  75 N3        29.79R
MT. PLEASANT * MOSUNNY   73  61  65 NW12      29.76R
MUSCATINE *    CLOUDY    68  61  77 CALM      29.77R
QUAD CITIES    CLOUDY    70  61  73 CALM      29.75F
$$

IAZ062-063-075>077-085>089-095>099-262200-
   SOUTHEAST IOWA

CITY           SKY/WX    TMP DP  RH WIND       PRES   REMARKS
BURLINGTON     MOSUNNY   74  65  73 NW5       29.75S
FAIRFIELD *    PTSUNNY   70  63  78 N9        29.77R
FORT MADISON * MOSUNNY   75  66  73 NW5       29.76S
KEOKUK *       PTSUNNY   77  64  65 NW7       29.74R
OSKALOOSA *      N/A     73  63  70 N3        29.78R
CENTERVILLE *    N/A     77  63  61 CALM      29.78S
OTTUMWA        SUNNY     76  63  64 N9        29.76S
WASHINGTON *   CLOUDY    66  63  88 N7        29.79R
$$

ABBREVIATIONS USED IN REMARKS
   TC - TEMPERATURES IN CELSIUS
  WCI - WIND CHILL INDEX
   HX - HEAT INDEX
  VSB - VISIBILITY
$$




USA.gov is the U.S. government's official web portal to all federal, state and local government web resources and services.